北斗三号 M11 (BEIDOU 3M11)

导读

BEIDOU-3 M12 是中国北斗三号卫星导航系统中的重要组成部分,属于中圆地球轨道(MEO)卫星。该卫星于2020年前后发射,主要用于提供全球范围内的高精度定位、导航和授时服务。北斗三号系统由多颗地球静止轨道(GEO)、倾斜地球同步轨道(IGSO)和中圆轨道(MEO)卫星组成,M12 卫星在其中承担关键的信号传输与数据校准功能,提升了系统的稳定性和覆盖能力,增强了中国在全球卫星导航领域的自主权和影响力。

Basic Information
目录编号:
43602
目录名称:
BEIDOU 3M11
国际标识:
2018-067A
轨道中心:
EARTH
卫星名称:
北斗三号 M11
卫星全名:
北斗三号 M11 (BEIDOU 3M11)
卫星状态:
在轨 (已飞行2851 天)
发射日期:
2018-08-24 UTC
国别 :
中国 (CN)
星等 :
--
Orbit Information
数据来源 国际轨道数据 AOE轨道数据
星历时间 2026-06-12T22:43:13+0800
1天前
查看轨道信息
2026-06-11T23:00:00+0800
2天前
查看轨道信息
半长轴 27906.509km 27906.689km
偏心率 0.0007719 0.0007762
轨道倾角 54.180° 54.180°
近地点辐角 30.111° 29.638°
升交点赤经 181.196° 181.229°
平近点角 329.994° 27.840°
近地点 21506.83km 21506.89km
远地点 21549.914km 21550.214km
周期 773.247分钟 773.254分钟
每日圈数 1.862278 1.86226
Detailed Information
平衡模式:
三轴稳定
制造商(研发单位):
中国科学院
制造商所在国:
中国
使用方式:
暂无
工作目标:
为全球用户提供连续、稳定、可靠的北斗导航、定位服务
预期寿命:
12年
Satellite Introduction
北斗卫星导航系统是中国着眼于国家安全和经济社会发展需要,自主建设运行的全球卫星导航系统,是为全球用户提供全天候、全天时、高精度的定位、导航和授时服务的国家重要时空基础设施。该卫星仍在工作。
2D Orbit Map
3D Orbit Map
Orbit Altitude Analysis Chart
Orbit Inclination Analysis Chart
Orbit Comprehensive Analysis Chart
View Comprehensive Chart